7L2IWN-13 Weather Reports


time (UTC)temp
F
wind
direction
speed
knots
gust
knots
rain 1hr
in
rain 24hr
in
rain mn
in
humidity
%
barometer
mb
20260508220406 57 232 2.6 4.3 0.00 0.00 0.00 69 1007.7
20260508215207 57 227 1.7 2.6 0.00 0.00 0.00 67 1007.4
20260508214007 56 299 1.7 2.6 0.00 0.00 0.00 65 1007.1
20260508211607 57 42 0.9 1.7 0.00 0.00 0.00 70 1006.7
20260508210408 54 152 1.7 4.3 0.00 0.00 0.00 73 1006.3
20260508205206 52 56 0.0 1.7 0.00 0.00 0.00 79 1006.1
20260508204008 52 242 1.7 2.6 0.00 0.00 0.00 79 1005.8
20260508202805 54 269 2.6 6.1 0.00 0.00 0.00 69 1005.6
20260508201607 53 187 4.3 6.1 0.00 0.00 0.00 77 1005.8
20260508200406 52 353 5.2 7.0 0.00 0.00 0.00 82 1005.4
20260508195205 51 154 0.9 2.6 0.00 0.00 0.00 84 1005.3
20260508194007 51 262 0.9 1.7 0.00 0.00 0.00 87 1005.3
20260508192807 52 250 2.6 4.3 0.00 0.00 0.00 92 1005.3
20260508191607 52 232 0.9 0.9 0.00 0.00 0.00 92 1005.1
20260508190405 53 312 0.9 1.7 0.00 0.00 0.00 90 1005.1
20260508185205 52 54 0.0 0.9 0.00 0.00 0.00 93 1005.0
20260508184006 53 180 4.3 6.1 0.00 0.00 0.00 96 1004.9
20260508182806 53 298 1.7 4.3 0.00 0.00 0.00 96 1005.0
20260508181605 54 159 4.3 5.2 0.00 0.00 0.00 95 1004.9
20260508180406 53 116 4.3 5.2 0.00 0.00 0.00 98 1004.8
20260508175207 53 216 0.9 1.7 0.00 0.00 0.00 97 1004.4
20260508174006 54 226 0.0 0.0 0.00 0.00 0.00 96 1004.2
20260508172808 54 315 1.7 1.7 0.00 0.00 0.00 95 1004.0
20260508171605 55 233 2.6 4.3 0.00 0.00 0.00 94 1004.1
20260508170406 55 223 0.0 0.0 0.00 0.00 0.00 93 1003.7
20260508165209 55 236 1.7 2.6 0.00 0.00 0.00 93 1003.8
20260508164007 55 244 0.0 0.9 0.00 0.00 0.00 93 1003.7
20260508162805 56 251 0.9 0.9 0.00 0.00 0.00 92 1003.7
20260508161606 57 234 0.9 1.7 0.00 0.00 0.00 90 1003.7
20260508160407 57 250 0.9 1.7 0.00 0.00 0.00 88 1003.3
20260508155206 57 283 0.0 0.0 0.00 0.00 0.00 86 1003.2
20260508154005 58 345 2.6 4.3 0.00 0.00 0.00 84 1003.3
20260508152805 58 77 0.0 0.0 0.00 0.00 0.00 83 1003.4
20260508151604 59 125 0.0 0.0 0.00 0.00 0.00 79 1003.4
20260508150406 60 31 0.0 0.0 0.00 0.00 0.00 77 1003.4
20260508145206 60 27 1.7 4.3 0.00 0.00 0.00 76 1003.4
20260508144006 61 30 2.6 4.3 0.00 0.00 0.00 76 1003.2
20260508142808 61 42 2.6 4.3 0.00 0.00 0.00 76 1002.9
20260508141605 62 72 2.6 4.3 0.00 0.00 0.00 77 1002.8
20260508140405 63 33 7.0 8.7 0.00 0.00 0.00 76 1002.6
20260508135206 64 45 4.3 5.2 0.00 0.00 0.00 78 1002.4
20260508134005 65 81 4.3 10.4 0.00 0.00 0.00 80 1002.1
20260508132805 65 29 1.7 2.6 0.00 0.00 0.00 83 1002.0
20260508131605 66 52 0.9 1.7 0.00 0.00 0.00 84 1002.0
20260508130406 66 3 1.7 4.3 0.00 0.00 0.00 84 1001.7
20260508125206 66 18 2.6 5.2 0.00 0.00 0.00 83 1001.6
20260508124004 67 22 2.6 5.2 0.00 0.00 0.00 84 1001.8
20260508122806 66 73 2.6 5.2 0.00 0.00 0.00 95 1001.7
20260508121606 66 293 1.7 2.6 0.00 0.00 0.00 94 1001.6
20260508120404 67 188 1.7 2.6 0.00 0.00 0.00 94 1001.7
20260508115204 67 325 0.9 1.7 0.00 0.00 0.00 94 1001.5
20260508114006 67 189 0.9 0.9 0.00 0.00 0.00 93 1001.5
20260508112806 67 253 0.9 1.7 0.00 0.00 0.00 93 1001.3
20260508111604 68 286 0.0 0.9 0.00 0.00 0.00 92 1001.2
20260508110406 68 208 0.9 1.7 0.00 0.00 0.00 91 1001.2
20260508105206 68 248 0.0 0.9 0.00 0.00 0.00 91 1001.2
20260508104005 68 296 0.9 1.7 0.00 0.00 0.00 92 1001.0
20260508102805 69 209 1.7 1.7 0.00 0.00 0.00 91 1001.1
20260508101606 69 260 0.9 2.6 0.00 0.00 0.00 91 1000.9
20260508100404 69 215 2.6 2.6 0.00 0.00 0.00 91 1000.7
20260508095205 70 249 0.0 0.0 0.00 0.00 0.00 89 1000.6
20260508094005 70 303 0.9 0.9 0.00 0.00 0.00 89 1000.7
20260508092806 71 227 0.9 0.9 0.00 0.00 0.00 87 1000.5
20260508091608 71 226 0.0 0.0 0.00 0.00 0.00 86 1000.7
20260508090404 72 226 0.9 1.7 0.00 0.00 0.00 85 1000.8
20260508085205 72 251 0.0 0.9 0.00 0.00 0.00 83 1000.3
20260508084007 73 351 0.0 0.9 0.00 0.00 0.00 82 1000.5
20260508082805 73 330 1.7 4.3 0.00 0.00 0.00 81 1000.8
20260508081604 73 336 2.6 6.1 0.00 0.00 0.00 81 1000.8
20260508080405 73 315 0.9 0.9 0.00 0.00 0.00 79 1000.6
20260508075203 74 306 0.0 0.0 0.00 0.00 0.00 78 1000.6
20260508074005 74 328 1.7 2.6 0.00 0.00 0.00 78 1000.6
20260508072807 74 48 0.0 1.7 0.00 0.00 0.00 77 1000.9
20260508071605 75 45 0.9 2.6 0.00 0.00 0.00 75 1001.1
20260508070404 75 356 1.7 4.3 0.00 0.00 0.00 77 1001.1
20260508065205 75 356 0.9 1.7 0.00 0.00 0.00 77 1001.7
20260508064004 73 298 1.7 4.3 0.00 0.00 0.00 79 1001.6
20260508062804 74 39 0.0 0.0 0.00 0.00 0.00 76 1001.8
20260508061604 74 24 0.9 1.7 0.00 0.00 0.00 77 1001.8
20260508060405 73 43 1.7 4.3 0.00 0.00 0.00 78 1001.9
20260508055204 73 21 0.0 1.7 0.00 0.00 0.00 78 1002.3
20260508054005 73 11 4.3 5.2 0.00 0.00 0.00 78 1002.1
20260508052803 73 77 7.8 10.4 0.00 0.00 0.00 77 1002.3
20260508051605 72 10 0.9 1.7 0.00 0.00 0.00 80 1002.7
20260508050403 74 81 0.9 1.7 0.00 0.00 0.00 78 1003.0
20260508045204 72 298 1.7 4.3 0.00 0.00 0.00 83 1003.1
20260508044004 71 97 0.0 1.7 0.00 0.00 0.00 82 1003.3
20260508042803 71 83 2.6 4.3 0.00 0.00 0.00 83 1003.6
20260508041604 72 354 0.0 0.9 0.00 0.00 0.00 82 1003.7
20260508040405 72 26 0.9 1.7 0.00 0.00 0.00 82 1003.9
20260508035204 73 31 1.7 2.6 0.00 0.00 0.00 81 1004.0
20260508034007 72 16 0.9 2.6 0.00 0.00 0.00 83 1004.2
20260508032805 72 29 2.6 7.0 0.00 0.00 0.00 84 1004.7
20260508031604 71 47 5.2 7.8 0.00 0.00 0.00 85 1005.0
20260508030405 71 77 2.6 4.3 0.00 0.00 0.00 84 1005.3
20260508025204 71 22 2.6 5.2 0.00 0.00 0.00 83 1005.4
20260508024004 71 86 4.3 6.1 0.00 0.00 0.00 83 1005.4
20260508022807 71 60 1.7 4.3 0.00 0.00 0.00 82 1005.7
20260508021605 71 19 2.6 5.2 0.00 0.00 0.00 82 1005.6
20260508020404 71 36 1.7 2.6 0.00 0.00 0.00 83 1005.7
20260508015205 70 85 1.7 4.3 0.00 0.00 0.00 85 1005.8
20260508014004 71 39 4.3 6.1 0.00 0.00 0.00 82 1005.8
20260508012805 70 109 1.7 2.6 0.00 0.00 0.00 81 1005.9
20260508011603 69 40 4.3 5.2 0.00 0.00 0.00 82 1005.8
20260508010405 69 22 0.9 2.6 0.00 0.00 0.00 82 1005.9
20260508005208 69 286 1.7 1.7 0.00 0.00 0.00 83 1006.4
20260508004004 68 286 0.9 2.6 0.00 0.00 0.00 82 1006.5
20260508002804 67 285 1.7 2.6 0.00 0.00 0.00 84 1006.7
20260508001605 67 285 0.9 2.6 0.00 0.00 0.00 84 1007.2
20260508000407 67 285 0.0 0.0 0.00 0.00 0.00 86 1007.4
20260507235204 67 282 0.9 2.6 0.00 0.00 0.00 85 1007.3
20260507234008 65 252 0.0 0.9 0.00 0.00 0.00 86 1007.3
20260507232806 64 245 1.7 2.6 0.00 0.00 0.00 89 1007.2
20260507231606 63 259 0.9 1.7 0.00 0.00 0.00 92 1007.4
20260507230406 62 217 0.9 1.7 0.00 0.00 0.00 96 1007.4
20260507225206 61 265 0.0 0.9 0.00 0.00 0.00 96 1007.2
20260507224006 62 264 0.0 0.0 0.00 0.00 0.00 96 1007.1
20260507222809 61 220 1.7 1.7 0.00 0.00 0.00 96 1007.3
20260507221606 61 272 0.0 0.0 0.00 0.00 0.00 98 1007.4